Regional Weather Roundup
Issued by NWS State College, PA

Home | Current Version | Previous Version | Graphics & Text | Print | Product List | Glossary Off
Versions: 1 2 3 4 5 6 7 8 9 10 11 12 13 14 15 16 17 18 19 20 21 22 23 24 25 26 27 28 29 30 31 32 33 34 35 36 37 38 39 40 41 42 43 44 45 46 47 48 49 50

480
ASUS41 KCTP 211510
RWRCTP

REGIONAL WEATHER ROUNDUP
NATIONAL WEATHER SERVICE STATE COLLEGE PA
1100 AM EDT SAT OCT 21 2017

Note: "fair" indicates few or no clouds below 12,000 feet with no
significant weather and/or obstructions to visibility.

* = STATION THAT DOES NOT REPORT PRECIPITATION /E.G. RAIN...SNOW...ETC/
    THUNDER OR FOG.

PAZ002>004-007>009-013>016-020>023-029>032-211600-
WESTERN PENNSYLVANIA

CITY           SKY/WX    TMP DP  RH WIND       PRES   REMARKS
ERIE           SUNNY     65  45  48 S8        30.29S
MEADVILLE      MOSUNNY   60  43  53 CALM      30.32S
FRANKLIN*      MOSUNNY   56  43  61 E3        30.34S
NEW CASTLE     FAIR      57  48  72 CALM      30.33S
BEAVER COUNTY  NOT AVBL
BUTLER*        SUNNY     61  45  55 SE3       30.33S
PITTSBURGH INT PTSUNNY   59  46  62 SE5       30.31S
PITTSBURGH     SUNNY     63  42  46 SE5       30.31S
INDIANA*       SUNNY     66  43  42 S5        30.36R
LATROBE        SUNNY     63  46  55 CALM      30.33S
WASHINGTON CO* SUNNY     64  49  57 CALM      30.34S
$$

PAZ004>006-010>012-017>019-024>028-033>037-041-042-045-046-049>053-211600-
CENTRAL PENNSYLVANIA

CITY           SKY/WX    TMP DP  RH WIND       PRES   REMARKS
BRADFORD       MOSUNNY   65  38  36 SW5       30.35S
DUBOIS         CLOUDY    62  40  44 SE6       30.34S
CLEARFIELD     CLOUDY    54  42  64 N3        30.37S
JOHNSTOWN      SUNNY     66  37  34 S8        30.36S
ALTOONA        CLOUDY    62  41  46 CALM      30.37F
STATE COLLEGE  SUNNY     55  45  67 CALM      30.38S
WILLIAMSPORT   SUNNY     54  44  69 CALM      30.37F
SELINSGROVE    SUNNY     56  45  66 CALM      30.38F
FT INDIANTOWN  SUNNY     60  45  57 CALM      30.36S
CAPITAL CITY   SUNNY     63  45  51 NW3       30.37S
HARRISBURG     MOSUNNY   60  49  66 W3        30.36S
YORK           SUNNY     63  48  58 CALM      30.37R
$$

PAZ038>040-043-044-047-048-054-055-060>062-067>071-211600-
EASTERN PENNSYLVANIA

CITY           SKY/WX    TMP DP  RH WIND       PRES   REMARKS
SCRANTON       SUNNY     57  42  57 NW3       30.37F
MOUNT POCONO   SUNNY     69  32  25 SW5       30.38R
ALLENTOWN      SUNNY     61  44  53 CALM      30.37S
QUAKERTOWN*    SUNNY     66  45  45 CALM      30.37S
READING        SUNNY     61  49  64 CALM      30.36F
LANCASTER      SUNNY     61  51  70 NE3       30.37S
COATESVILLE    SUNNY     70  36  28 CALM      30.38S
POTTSTOWN      SUNNY     62  47  57 CALM      30.38S
BLUE BELL      SUNNY     66  45  45 CALM      30.38S
DOYLESTOWN     SUNNY     69  44  40 CALM      30.36S
WILLOW GROVE   NOT AVBL
NORTH PHILA    SUNNY     71  43  36 CALM      30.38R
PHILADELPHIA   MOSUNNY   66  43  43 CALM      30.36F
$$




USA.gov is the U.S. government's official web portal to all federal, state and local government web resources and services.